Date String (YYYY-MM-DD hh:mm:ss) UTC,Instrument flags,Ambient pressure (hPa),Sample flow (lpm),Bypass flow (lpm),Sample temperature (°C),Ambient temperature (°C),ASC tube jacket temperature (°C),LED temperature (°C),Box temperature (°C),Sample RH (%),Span deviation,Mass concentration (μg/m³),Mass concentration (μg/m³),Mass concentration (μg/m³)
DateTimeUTC,F1_M11,P_M11,Q1_M11,Q2_M11,T1_M11,T2_M11,T3_M11,T4_M11,T5_M11,U1_M11,ZSPAN_M11,X0_M11,X2_M11,X1_M11
2022-06-04 10:00:00,,0822.2,5.00,0.00,29.1,28.0,00.0,38.0,31.0,22.2,0000.0,0015.76,0005.52,0004.46
2022-06-04 10:01:00,,0822.2,4.99,0.00,29.1,28.0,00.0,38.0,31.0,22.3,0000.0,0014.86,0005.55,0004.50
2022-06-04 10:02:00,,0822.1,5.01,0.00,29.1,28.0,00.0,38.0,31.0,22.4,0000.0,0014.86,0005.57,0004.52
2022-06-04 10:03:00,,0822.1,5.01,0.00,29.1,28.0,00.0,38.0,31.0,22.5,0000.0,0015.10,0005.61,0004.55
2022-06-04 10:04:00,,0822.1,4.99,0.00,29.1,28.0,00.0,38.0,31.0,22.6,0000.0,0014.76,0005.62,0004.59
2022-06-04 10:05:00,,0822.1,5.00,0.00,29.1,28.0,00.0,38.0,31.0,22.7,0000.0,0014.17,0005.63,0004.63
2022-06-04 10:06:00,,0822.2,5.00,0.00,29.1,28.0,00.0,38.0,31.0,22.8,0000.0,0012.93,0005.60,0004.65
2022-06-04 10:07:00,,0822.2,5.00,0.00,29.1,28.0,00.0,38.0,31.0,22.8,0000.0,0012.56,0005.60,0004.67
2022-06-04 10:08:00,,0822.1,5.01,0.00,29.1,28.0,00.0,38.0,31.0,22.9,0000.0,0012.58,0005.60,0004.69
2022-06-04 10:09:00,,0822.1,5.00,0.00,29.1,28.0,00.0,38.0,31.0,22.9,0000.0,0012.64,0005.58,0004.71
2022-06-04 10:10:00,,0822.1,5.00,0.00,29.1,28.0,00.0,38.0,31.0,22.8,0000.0,0012.78,0005.56,0004.71
2022-06-04 10:11:00,,0822.1,5.01,0.00,29.1,28.0,00.0,38.0,31.0,22.7,0000.0,0013.10,0005.54,0004.72
2022-06-04 10:12:00,,0822.1,5.00,0.00,29.1,28.0,00.0,38.0,31.0,22.7,0000.0,0013.07,0005.52,0004.72
2022-06-04 10:13:00,,0822.1,5.00,0.00,29.1,28.0,00.0,38.0,31.0,22.5,0000.0,0012.91,0005.48,0004.71
2022-06-04 10:14:00,,0822.1,5.00,0.00,29.1,28.0,00.0,38.0,31.0,22.4,0000.0,0012.49,0005.46,0004.70
2022-06-04 10:15:00,,0822.1,5.01,0.00,29.1,28.0,00.0,38.0,31.0,22.0,0000.0,0012.67,0005.44,0004.68
2022-06-04 10:16:00,,0822.1,4.99,0.00,29.1,27.9,00.0,38.0,31.0,21.7,0000.0,0012.74,0005.47,0004.65
2022-06-04 10:17:00,,0822.2,4.99,0.00,29.1,27.9,00.0,38.0,31.0,21.7,0000.0,0013.54,0005.52,0004.62
2022-06-04 10:18:00,,0822.2,5.00,0.00,29.1,27.9,00.0,38.0,31.0,21.6,0000.0,0014.36,0005.55,0004.60
2022-06-04 10:19:00,,0822.3,5.01,0.00,29.1,27.9,00.0,38.0,31.0,21.7,0000.0,0014.93,0005.55,0004.59
2022-06-04 10:20:00,,0822.2,4.99,0.00,29.1,28.0,00.0,38.0,31.0,21.9,0000.0,0015.08,0005.56,0004.58
2022-06-04 10:21:00,,0822.3,5.01,0.00,29.1,28.0,00.0,38.0,31.0,21.9,0000.0,0015.76,0005.56,0004.56
2022-06-04 10:22:00,,0822.3,5.00,0.00,29.1,28.0,00.0,38.0,31.0,21.8,0000.0,0015.51,0005.58,0004.54
2022-06-04 10:23:00,,0822.3,5.00,0.00,29.1,28.0,00.0,38.0,31.0,21.5,0000.0,0016.26,0005.61,0004.52
2022-06-04 10:24:00,,0822.3,5.00,0.00,29.1,28.0,00.0,38.0,31.0,21.3,0000.0,0017.17,0005.61,0004.50
2022-06-04 10:25:00,,0822.3,5.00,0.00,29.1,28.0,00.0,38.0,31.0,21.1,0000.0,0017.52,0005.58,0004.47
2022-06-04 10:26:00,,0822.3,5.01,0.00,29.1,28.0,00.0,38.0,31.0,21.1,0000.0,0017.54,0005.60,0004.46
2022-06-04 10:27:00,,0822.3,5.00,0.00,29.1,28.0,00.0,38.0,31.0,21.3,0000.0,0018.29,0005.61,0004.46
2022-06-04 10:28:00,,0822.3,5.01,0.00,29.1,28.0,00.0,38.0,31.0,21.6,0000.0,0018.72,0005.60,0004.47
2022-06-04 10:29:00,,0822.3,4.99,0.00,29.1,28.0,00.0,38.0,31.0,21.7,0000.0,0020.39,0005.61,0004.47
2022-06-04 10:30:00,,0822.3,4.99,0.00,29.1,28.0,00.0,38.0,30.9,21.8,0000.0,0020.37,0005.59,0004.45
2022-06-04 10:31:00,,0822.3,5.01,0.00,29.1,28.0,00.0,38.0,30.9,22.0,0000.0,0019.69,0005.61,0004.45
2022-06-04 10:32:00,,0822.3,4.99,0.00,29.1,27.9,00.0,38.0,30.9,22.0,0000.0,0019.69,0005.61,0004.45
2022-06-04 10:33:00,,0822.3,5.01,0.00,29.0,27.9,00.0,38.0,30.9,22.4,0000.0,0018.95,0005.56,0004.46
2022-06-04 10:34:00,,0822.3,5.00,0.00,29.0,27.9,00.0,38.0,30.8,22.8,0000.0,0018.81,0005.49,0004.49
2022-06-04 10:35:00,,0822.3,4.99,0.00,29.0,27.9,00.0,38.0,30.8,22.9,0000.0,0018.12,0005.54,0004.54
2022-06-04 10:36:00,,0822.3,4.99,0.00,29.0,27.8,00.0,38.0,30.8,22.8,0000.0,0018.36,0005.59,0004.59
2022-06-04 10:37:00,,0822.3,5.01,0.00,29.0,27.8,00.0,38.0,30.8,22.3,0000.0,0018.49,0005.59,0004.61
2022-06-04 10:38:00,,0822.3,5.02,0.00,28.9,27.8,00.0,38.0,30.7,21.8,0000.0,0016.91,0005.55,0004.63
2022-06-04 10:39:00,,0822.3,5.01,0.00,28.9,27.8,00.0,37.9,30.7,21.8,0000.0,0015.83,0005.54,0004.63
2022-06-04 10:40:00,,0822.3,4.99,0.00,28.9,27.8,00.0,37.9,30.7,21.9,0000.0,0013.87,0005.52,0004.64
2022-06-04 10:41:00,,0822.3,5.00,0.00,28.9,27.7,00.0,37.9,30.7,22.1,0000.0,0013.88,0005.53,0004.65
2022-06-04 10:42:00,,0822.4,5.00,0.00,28.9,27.7,00.0,37.9,30.7,22.5,0000.0,0013.85,0005.49,0004.65
2022-06-04 10:43:00,,0822.3,5.01,0.00,28.9,27.7,00.0,37.9,30.7,22.8,0000.0,0013.16,0005.43,0004.66
2022-06-04 10:44:00,,0822.4,5.00,0.00,28.9,27.7,00.0,37.9,30.7,22.9,0000.0,0012.88,0005.42,0004.67
2022-06-04 10:45:00,,0822.4,4.99,0.00,28.9,27.7,00.0,37.9,30.7,23.0,0000.0,0012.89,0005.45,0004.66
2022-06-04 10:46:00,,0822.3,5.00,0.00,28.9,27.7,00.0,37.9,30.7,23.4,0000.0,0012.90,0005.41,0004.65
2022-06-04 10:47:00,,0822.4,5.00,0.00,28.9,27.7,00.0,37.9,30.7,23.8,0000.0,0012.29,0005.46,0004.68
2022-06-04 10:48:00,,0822.3,5.00,0.00,28.9,27.7,00.0,37.9,30.7,24.1,0000.0,0011.99,0005.52,0004.74
2022-06-04 10:49:00,,0822.3,4.99,0.00,28.9,27.8,00.0,37.8,30.7,24.2,0000.0,0011.91,0005.53,0004.79
2022-06-04 10:50:00,,0822.4,5.00,0.00,28.9,27.8,00.0,37.8,30.7,24.1,0000.0,0011.66,0005.53,0004.85
2022-06-04 10:51:00,,0822.3,4.99,0.00,28.9,27.8,00.0,37.8,30.7,24.0,0000.0,0011.39,0005.53,0004.90
2022-06-04 10:52:00,,0822.3,5.01,0.00,28.8,27.8,00.0,37.8,30.7,24.2,0000.0,0010.67,0005.58,0004.96
2022-06-04 10:53:00,,0822.3,5.00,0.00,28.8,27.7,00.0,37.8,30.7,24.2,0000.0,0010.77,0005.66,0005.02
2022-06-04 10:54:00,,0822.3,5.00,0.00,28.8,27.7,00.0,37.8,30.6,24.0,0000.0,0011.50,0005.76,0005.06
2022-06-04 10:55:00,,0822.4,5.00,0.00,28.8,27.7,00.0,37.8,30.6,23.7,0000.0,0011.95,0005.79,0005.08
2022-06-04 10:56:00,,0822.5,5.01,0.00,28.8,27.7,00.0,37.8,30.7,23.5,0000.0,0012.15,0005.82,0005.08
2022-06-04 10:57:00,,0822.5,5.00,0.00,28.8,27.7,00.0,37.8,30.6,23.2,-000.2,0011.92,0005.83,0005.07
2022-06-04 10:58:00,,0822.4,5.00,0.00,28.8,27.7,00.0,37.8,30.6,23.1,0000.0,0011.88,0005.75,0005.02
2022-06-04 10:59:00,,0822.4,5.00,0.00,28.8,27.7,00.0,37.8,30.6,23.7,0000.0,0011.53,0005.70,0005.01
